DELPHINI

Last updated on Mon Mar 15 2021 00:02:10 GMT+0000 (Coordinated Universal Time)

1 44030U 98067PW 21073.20127863 .06612467 12175-4 91963-3 0 9996 2 44030 51.6130 1.9822 0006321 224.0789 135.9732 16.34207165121093

Satellite not in orbit